Find Starlink 3529

NORAD ID: 51724 Int'l Des: 2022-016 Owner: SPXS Country: US Constellation: starlink operational
LEOCIRCULAR

实时位置

正在加载3D地球...

关于 Starlink 3529

正在加载描述...

即将过境

Passes for default location (London). Set your location on the main map for personalized predictions.

高度历史

Loading altitude history...

两行轨道根数

1 51724U 22016L 26123.61942390 .00000125 00000-0 25952-4 0 9993
2 51724 53.2172 82.5318 0001404 81.9302 278.1849 15.08840292231712
Epoch: May 3, 2026 • Age: 11 hours

当前状态

高度 553.3 km
速度 7.58 km/s
星下点 -39.31°S, 154.56°E
发射日期 Feb 21, 2022
运行时间 4.1 years
类型 internet

技术详情

分类 Payload
质量 297.00 kg
干质量 275.00 kg
总质量 297.00 kg
长度 0.20 m
直径 2.80 m
跨度 9.00 m
形状 Box + pan
制造商 SPXS
平台类型 Starlink
阶段状态 In Orbit
所有者/国家 SPXS/US

Most Searched